Location: Austin
(30.3000°N, 97.7500°W)
Time: 00:46:45
(UTC-05:00)

Cosmos 972 Rocket - Pass Details

Date: 15 May 2024
Orbit: 713 x 1150 km, 75.8° (Epoch: 29 May)

Event Time Altitude Azimuth Distance (km) Brightness Sun altitude
Rises 21:49:25 0° 195° (SSW) 3,164 7.0 -17.9°
Reaches altitude 10° 21:51:47 10° 196° (SSW) 2,214 6.2 -18.3°
Maximum altitude 21:56:42 80° 283° (WNW) 726 3.9 -19.2°
Drops below altitude 10° 22:01:36 10° 11° (NNE) 2,206 6.7 -20.0°
Sets 22:03:57 0° 13° (NNE) 3,151 7.5 -20.4°
